Powrót do katalogu

YZ-1S DEB

AktywnySSO
NORAD 43644·DEBRIS·🇨🇳 China

Wystrzelony Oct 9, 2018 z Jiuquan Satellite Launch Center

Loading…

Następne Przeloty (najbliższe 24 godziny)

TLE

ŚwieżeSource: Space-Track

Epoka: Sep 14, 2026, 13:26 UTC

1 43644U 18077C   26257.56024921  .00001502  00000-0  24257-3 0  9996
2 43644  97.9137 297.4526 0008096 129.3835 230.8091 14.72777383423795

Śledź YZ-1S DEB w czasie rzeczywistym z AllMySat

Download on the App Store